Torrington, WY

9:40 AM MST on February 24, 2018 (GMT -0700)
Torrington Municipal

Weather History for KTOR - March, 2014

Change the Weather History Date:

Saturday, March 22, 2014

  Actual Average Record
Temperature  
Mean Temperature 23 °F 39 °F  
Max Temperature 27 °F 53 °F 78 °F (2004)
Min Temperature 18 °F 26 °F 13 °F (2002)
Degree Days  
Heating Degree Days 42 26  
Month to date heating degree days 635 622  
Since 1 July heating degree days 5750 5466  
Cooling Degree Days 0 0  
Month to date cooling degree days 0 0  
Year to date cooling degree days 0 0  
Moisture  
Dew Point 19 °F    
Average Humidity 84    
Maximum Humidity 96    
Minimum Humidity 71    
Precipitation  
Precipitation 0.05 in 0.03 in 0.11 in (2014)
Month to date precipitation 0.43 0.43  
Year to date precipitation 1.36 1.03  
Sea Level Pressure  
Sea Level Pressure 30.28 in    
Wind  
Wind Speed 13 mph (East)    
Max Wind Speed 22 mph    
Max Gust Speed 26 mph    
Visibility 4 miles    
Events Fog , Snow    
T = Trace of Precipitation, MM = Missing Value Source: NWS Daily Summary

Daily Weather History Graph

Daily Weather History Graph

Search for Another Location

Airport or City:

Trip Planner

Search our weather history database for the weather conditions in past years. The results will help you decide how hot, cold, wet, or windy it might be!

Date:

Astronomy

Mar. 22, 2014 Rise Set
Actual Time 6:56 AM MDT 7:11 PM MDT
Civil Twilight 6:28 AM MDT 7:39 PM MDT
Nautical Twilight 5:55 AM MDT 8:11 PM MDT
Astronomical Twilight 5:22 AM MDT 8:45 PM MDT
Moon 12:37 AM MDT (3/22) 10:37 AM MDT (3/22)
Length of Visible Light 13h 10m
Length of Day
12h 14m
Waning Gibbous, 65% of the Moon is Illuminated
Mar 22
Waning Gibbous
Mar 23
Last Quarter
Mar 30
New
Apr 7
First Quarter
Apr 15
Full

Hourly Weather History & Observations

Time (MDT) Temp. Windchill Dew Point Humidity Pressure Visibility Wind Dir Wind Speed Gust Speed Precip Events Conditions
12:25 AM 27.0 °F 16.1 °F 19.9 °F 75% 30.19 in 10.0 mi ESE 12.7 mph - N/A   Overcast
12:53 AM 27.0 °F 16.7 °F 19.9 °F 75% 30.25 in 10.0 mi ESE 11.5 mph - N/A   Overcast
1:08 AM 27.0 °F 15.6 °F 19.9 °F 75% 30.19 in 10.0 mi ESE 13.8 mph - N/A   Overcast
1:15 AM 27.0 °F 16.7 °F 19.9 °F 75% 30.19 in 10.0 mi ESE 11.5 mph - N/A   Overcast
1:25 AM 27.0 °F 15.6 °F 19.9 °F 75% 30.19 in 10.0 mi ESE 13.8 mph - N/A   Overcast
1:33 AM 27.0 °F 16.7 °F 19.9 °F 75% 30.19 in 10.0 mi ESE 11.5 mph - N/A   Overcast
1:53 AM 26.1 °F 14.5 °F 19.9 °F 78% 30.24 in 10.0 mi ESE 13.8 mph - N/A   Overcast
2:15 AM 26.1 °F 15.6 °F 19.9 °F 78% 30.18 in 10.0 mi East 11.5 mph - N/A   Overcast
2:43 AM 26.1 °F 16.2 °F 21.0 °F 81% 30.17 in 8.0 mi East 10.4 mph - 0.00 in Snow Light Snow
2:53 AM 26.1 °F 16.2 °F 21.0 °F 81% 30.24 in 5.0 mi East 10.4 mph - 0.00 in Snow Light Snow
3:02 AM 26.1 °F 15.6 °F 21.0 °F 81% 30.17 in 2.5 mi East 11.5 mph - 0.00 in Snow Light Snow
3:22 AM 26.1 °F 15.0 °F 21.9 °F 84% 30.16 in 3.0 mi East 12.7 mph - 0.00 in Snow Light Snow
3:30 AM 25.0 °F 14.2 °F 21.9 °F 88% 30.16 in 2.0 mi East 11.5 mph - 0.00 in Snow Light Snow
3:39 AM 25.0 °F 13.6 °F 21.9 °F 88% 30.15 in 1.5 mi East 12.7 mph - 0.00 in Snow Light Snow
3:53 AM 25.0 °F 14.2 °F 21.9 °F 88% 30.22 in 1.5 mi East 11.5 mph - 0.00 in Snow Light Snow
4:16 AM 25.0 °F 13.6 °F 21.9 °F 88% 30.15 in 2.0 mi East 12.7 mph - 0.01 in Snow Light Snow
4:24 AM 25.0 °F 14.8 °F 21.9 °F 88% 30.15 in 1.2 mi East 10.4 mph - 0.01 in Snow Light Snow
4:44 AM 24.1 °F 14.4 °F 21.9 °F 91% 30.16 in 1.2 mi East 9.2 mph - 0.01 in Snow Light Snow
4:53 AM 24.1 °F 13.1 °F 21.9 °F 91% 30.24 in 1.2 mi East 11.5 mph - 0.02 in Snow Light Snow
5:09 AM 24.1 °F 12.5 °F 21.9 °F 91% 30.16 in 1.5 mi East 12.7 mph - 0.00 in Snow Light Snow
5:21 AM 24.1 °F 12.5 °F 21.0 °F 88% 30.16 in 2.0 mi East 12.7 mph - 0.00 in Snow Light Snow
5:46 AM 23.0 °F 10.6 °F 21.0 °F 92% 30.16 in 1.5 mi East 13.8 mph - 0.00 in Snow Light Snow
5:53 AM 23.0 °F 10.6 °F 21.0 °F 92% 30.25 in 1.8 mi East 13.8 mph - 0.01 in Snow Light Snow
6:20 AM 23.0 °F 11.1 °F 21.0 °F 92% 30.17 in 2.5 mi East 12.7 mph - 0.00 in Snow Light Snow
6:36 AM 23.0 °F 10.1 °F 21.0 °F 92% 30.17 in 1.5 mi East 15.0 mph - 0.00 in Snow Light Snow
6:53 AM 23.0 °F 10.1 °F 21.0 °F 92% 30.28 in 1.5 mi East 15.0 mph - 0.00 in Snow Light Snow
7:21 AM 23.0 °F 10.6 °F 19.9 °F 88% 30.19 in 0.8 mi East 13.8 mph - 0.00 in Snow Light Snow
7:53 AM 21.9 °F 7.8 °F 19.9 °F 92% 30.31 in 0.8 mi East 17.3 mph - 0.01 in Snow Light Snow
8:08 AM 21.9 °F 9.2 °F 19.9 °F 92% 30.20 in 0.8 mi East 13.8 mph - 0.00 in Snow Light Snow
8:53 AM 21.9 °F 9.2 °F 19.0 °F 89% 30.33 in 0.8 mi East 13.8 mph - 0.00 in Snow Light Snow
9:14 AM 21.0 °F 7.1 °F 18.0 °F 88% 30.22 in 0.8 mi East 16.1 mph - 0.01 in Snow Light Snow
9:21 AM 21.0 °F 6.6 °F 18.0 °F 88% 30.23 in 1.0 mi East 17.3 mph - 0.01 in Snow Light Snow
9:34 AM 21.0 °F 5.7 °F 18.0 °F 88% 30.23 in 0.8 mi ENE 19.6 mph - 0.01 in Snow Light Snow
9:53 AM 21.0 °F 5.7 °F 18.0 °F 88% 30.35 in 0.8 mi ENE 19.6 mph - 0.01 in Snow Light Snow
10:02 AM 21.0 °F 5.4 °F 18.0 °F 88% 30.24 in 1.0 mi ENE 20.7 mph - 0.00 in Snow Light Snow
10:45 AM 21.0 °F 5.7 °F 17.1 °F 85% 30.25 in 3.0 mi ENE 19.6 mph - 0.00 in Snow Light Snow
10:53 AM 21.0 °F 5.4 °F 18.0 °F 88% 30.38 in 2.5 mi ENE 20.7 mph - 0.00 in Snow Light Snow
11:06 AM 21.0 °F 5.4 °F 17.1 °F 85% 30.25 in 1.5 mi ENE 20.7 mph - 0.00 in Snow Light Snow
11:27 AM 21.0 °F 5.4 °F 18.0 °F 88% 30.26 in 0.8 mi ENE 20.7 mph - 0.00 in Snow Light Snow
11:36 AM 21.0 °F 5.7 °F 18.0 °F 88% 30.26 in 0.5 mi ENE 19.6 mph - 0.00 in Fog , Snow Snow
11:53 AM 21.0 °F 5.4 °F 17.1 °F 85% 30.39 in 1.2 mi East 20.7 mph - 0.00 in Snow Light Snow
12:53 PM 21.0 °F 7.1 °F 16.0 °F 81% 30.40 in 1.5 mi East 16.1 mph - 0.00 in Snow Light Snow
1:12 PM 21.0 °F 7.6 °F 16.0 °F 81% 30.28 in 3.0 mi East 15.0 mph - 0.00 in Snow Light Snow
1:35 PM 21.0 °F 7.1 °F 15.1 °F 78% 30.28 in 5.0 mi East 16.1 mph - 0.00 in Snow Light Snow
1:53 PM 21.0 °F 7.6 °F 16.0 °F 81% 30.42 in 5.0 mi ENE 15.0 mph - 0.00 in Snow Light Snow
2:26 PM 21.0 °F 8.6 °F 15.1 °F 78% 30.28 in 2.0 mi East 12.7 mph - 0.00 in Snow Light Snow
2:45 PM 21.9 °F 11.0 °F 15.1 °F 75% 30.29 in 4.0 mi East 10.4 mph - 0.00 in Snow Light Snow
2:53 PM 21.0 °F 8.1 °F 16.0 °F 81% 30.42 in 4.0 mi ENE 13.8 mph - 0.00 in Snow Light Snow
3:00 PM 21.0 °F 8.1 °F 15.1 °F 78% 30.29 in 4.0 mi East 13.8 mph - 0.00 in Snow Light Snow
3:53 PM 21.0 °F 9.3 °F 15.1 °F 78% 30.44 in 4.0 mi East 11.5 mph - 0.00 in Snow Light Snow
4:53 PM 21.0 °F 11.4 °F 14.0 °F 74% 30.46 in 7.0 mi East 8.1 mph - 0.00 in Snow Light Snow
5:53 PM 21.0 °F 11.4 °F 14.0 °F 74% 30.48 in 10.0 mi SE 8.1 mph - 0.00 in   Overcast
6:53 PM 19.9 °F 10.1 °F 15.1 °F 81% 30.49 in 8.0 mi ESE 8.1 mph - N/A   Overcast
7:53 PM 19.0 °F 10.0 °F 14.0 °F 81% 30.51 in 8.0 mi ESE 6.9 mph - 0.00 in Snow Light Snow
8:53 PM 19.0 °F 8.2 °F 14.0 °F 81% 30.52 in 10.0 mi SE 9.2 mph - 0.00 in   Overcast
9:53 PM 19.0 °F 8.2 °F 15.1 °F 85% 30.52 in 10.0 mi SE 9.2 mph - N/A   Overcast
10:53 PM 18.0 °F 6.9 °F 15.1 °F 88% 30.51 in 10.0 mi SE 9.2 mph - N/A   Overcast
11:53 PM 18.0 °F 6.9 °F 15.1 °F 88% 30.49 in 10.0 mi ESE 9.2 mph - N/A   Overcast